Wind_Speed
5 4 5 5 6 7 6 6 7 8 9 8 7 6 6 6 6 6 6 6 6 6 7 9 10 11 12 13 13 12 12 12 12 13 13 13 13 13 13 13 13 13 13 13 13 13 14 14 15 15 16 17 17 18 17 16 17 17 17 18 18 19 18 16 14 14 14 13 13
4 4 4 5 6 6 6 5 6 6 7 7 7 8 7 7 7 7 6 6 6 7 9 9 10 11 11 11 11 11 11 11 11 11 12 12 12 12 11 11 11 11 11 11 10 10 11 12 13 14 16 17 18 18 18 17 17 17 16 16 17 17 16 14 12 12 12 12 13
4 3 3 3 3 3 3 3 3 3 4 5 6 7 8 8 8 7 6 6 7 8 9 10 9 9 9 10 10 9 9 9 10 10 10 10 10 9 8 8 8 9 9 10 10 10 11 11 13 14 15 16 17 17 17 17 16 15 14 14 15 15 15 14 13 12 12 12 13
4 3 3 3 3 3 3 3 4 4 5 6 7 8 8 8 7 7 6 7 7 8 9 9 8 8 8 9 9 8 8 8 9 10 10 9 8 7 6 7 8 8 9 10 10 11 11 12 13 14 14 14 15 15 16 16 15 15 15 15 15 15 14 14 14 14 14 15 15
4 4 4 4 5 5 5 6 6 7 8 9 9 9 9 8 8 8 8 7 7 8 9 10 9 8 8 9 8 7 7 7 8 9 9 8 7 5 5 6 7 8 9 9 10 10 10 11 12 13 13 14 14 14 14 14 14 14 15 15 15 14 14 14 14 16 17 18 18
4 4 5 6 6 6 7 8 9 10 11 11 10 9 9 9 9 9 9 8 8 9 10 10 9 9 8 8 7 6 6 7 7 8 8 8 6 5 4 5 6 7 8 8 8 9 9 10 11 12 12 12 12 12 13 13 13 13 13 13 13 13 13 13 14 16 17 18 18
5 5 5 6 6 7 8 9 10 11 11 11 10 9 9 9 9 9 9 9 10 10 10 9 9 9 8 7 6 6 6 7 7 7 7 7 6 5 4 4 5 6 6 7 7 8 8 8 9 10 10 10 10 10 11 11 11 11 11 11 12 12 12 12 14 15 16 16 16
5 5 5 6 6 7 8 9 9 9 9 9 9 9 9 9 9 8 9 10 10 10 9 9 9 9 8 7 6 6 6 6 6 6 6 6 7 7 6 5 5 5 6 6 6 6 7 7 7 7 7 8 8 9 9 9 9 9 10 11 11 12 12 12 12 13 13 13 13
4 4 5 6 6 7 7 8 8 8 8 8 9 9 9 9 8 9 9 10 10 10 10 10 10 9 8 7 6 7 7 7 7 7 6 6 7 7 7 6 5 5 5 5 5 5 5 5 5 5 5 6 6 7 8 8 8 8 9 10 10 10 11 11 11 11 11 11 11
3 3 4 4 5 6 7 7 8 8 8 8 9 9 9 9 9 9 10 11 10 10 10 10 10 8 7 7 7 7 7 7 7 7 6 7 6 6 5 5 5 5 5 4 4 4 3 4 4 4 4 4 5 5 6 6 6 7 8 8 9 8 8 9 9 10 10 10 11
3 4 4 4 5 6 7 6 6 7 8 8 9 9 8 9 10 11 11 10 10 10 11 10 9 8 8 8 7 7 7 7 7 7 7 6 6 6 5 5 4 4 4 3 3 3 3 3 3 3 3 3 4 4 5 5 6 7 8 8 8 8 8 8 9 10 10 10 10
4 5 6 6 7 7 7 6 5 6 7 7 7 7 8 9 10 10 9 9 9 10 10 10 9 8 8 7 7 6 5 5 6 6 7 7 6 6 5 5 5 4 3 2 3 3 4 4 3 3 3 4 4 5 5 6 7 7 8 8 8 8 9 9 9 10 10 10 10
4 5 6 7 7 7 7 6 6 5 6 7 7 7 8 9 9 8 7 7 8 8 9 9 8 8 7 7 6 6 5 5 5 5 6 6 6 6 5 5 4 3 2 2 2 3 3 3 3 3 3 3 4 4 5 6 6 7 8 8 8 8 9 9 9 9 9 9 9
4 5 5 6 6 6 6 6 6 6 6 8 9 9 9 9 8 7 6 6 7 7 8 8 8 8 7 7 6 5 5 5 5 5 6 6 6 5 5 4 3 2 1 2 2 2 2 2 2 2 3 4 4 4 5 5 6 6 7 7 8 8 8 9 9 8 8 8 7
4 4 5 5 5 5 5 5 6 6 7 8 10 10 10 9 8 7 7 7 7 7 7 7 7 8 8 7 5 4 4 4 5 5 5 5 5 5 4 4 3 3 2 1 1 1 1 1 1 3 4 5 5 5 5 5 6 6 6 7 7 7 7 7 7 7 6 6 6
3 3 4 4 4 4 5 5 6 6 7 8 10 11 11 10 8 7 6 6 7 7 6 6 6 6 7 7 6 5 4 4 4 4 4 4 5 4 4 4 4 4 3 2 1 1 1 1 2 3 5 5 5 5 5 5 5 5 6 6 6 6 6 6 6 6 6 6 6
2 3 3 3 4 4 5 5 6 6 6 7 9 11 11 9 8 7 7 6 6 5 4 4 4 4 5 5 5 5 4 3 3 3 3 3 4 5 5 5 5 5 4 4 4 4 4 4 5 5 5 5 5 5 5 4 5 5 5 5 6 6 6 6 6 6 6 6 7
3 3 3 4 4 4 5 5 6 6 7 8 9 10 10 9 8 7 7 7 6 5 4 4 4 4 3 3 4 3 3 3 3 2 3 3 4 5 6 6 7 7 6 6 7 7 7 7 7 7 6 5 5 5 5 6 6 6 6 6 6 7 7 6 6 6 6 6 7
3 3 3 4 4 4 5 5 5 6 7 9 10 10 10 9 8 7 7 7 7 6 5 5 5 4 4 4 4 4 4 3 3 4 5 5 6 7 7 8 8 8 8 8 9 9 8 8 8 7 7 6 6 6 6 7 7 7 7 7 7 7 7 7 7 7 6 7 7
3 3 3 4 4 4 4 5 5 6 7 8 9 9 9 9 8 7 6 6 6 7 7 7 6 5 5 5 5 5 5 4 4 5 6 7 8 8 8 8 7 7 7 8 8 8 8 8 8 7 6 6 6 6 7 7 8 8 8 8 8 8 8 7 7 7 7 7 8
4 4 4 4 4 4 5 5 5 6 6 7 8 8 8 7 6 6 6 5 5 6 6 7 6 6 5 5 6 5 5 4 5 5 6 7 7 7 6 5 6 6 6 6 7 7 7 7 7 7 7 7 7 7 7 7 8 8 8 8 8 8 8 7 7 7 7 7 8
4 4 4 4 5 5 5 5 5 5 5 6 7 7 7 6 5 5 5 5 6 6 6 6 6 6 7 6 6 5 5 5 5 6 7 7 8 7 5 5 5 6 6 6 7 7 7 7 7 7 7 7 7 7 7 8 8 8 8 8 8 8 8 8 8 8 8 8 8
4 5 5 5 5 6 6 6 6 6 6 6 7 7 7 6 6 6 6 6 6 7 7 7 7 8 9 9 9 8 7 7 8 8 9 9 9 8 7 6 6 6 6 7 7 8 7 7 7 8 8 8 7 7 7 8 8 9 9 9 8 8 9 9 9 9 9 9 8
5 5 5 5 6 6 6 7 7 7 7 6 6 7 7 8 7 7 7 8 8 8 8 8 8 9 10 10 10 10 9 9 10 10 10 10 9 8 7 7 7 6 6 7 7 8 8 8 8 8 8 8 8 8 8 9 9 9 9 9 9 9 9 9 9 9 9 9 8
5 5 5 5 6 6 6 7 7 8 8 7 7 7 7 8 8 9 9 9 10 9 9 9 9 9 9 9 8 8 9 9 9 9 9 9 8 7 7 7 7 7 7 8 8 8 8 8 8 8 9 8 8 9 9 9 9 9 9 9 9 10 10 10 9 9 9 8 8
5 5 5 6 6 6 6 7 7 7 7 7 7 7 7 7 8 9 9 8 8 8 8 9 9 9 8 8 7 7 7 8 8 8 8 7 7 7 7 7 7 7 8 9 9 9 8 8 8 9 9 9 9 9 9 9 9 9 9 9 9 10 10 10 9 9 8 8 8
5 5 6 6 6 6 6 6 6 6 6 6 6 6 6 6 6 6 6 6 6 7 7 7 7 7 7 7 7 7 7 7 6 6 6 6 6 6 6 6 6 6 7 8 9 8 8 9 9 10 10 10 10 10 10 10 9 9 9 9 9 9 9 9 9 8 8 8 9
6 6 6 6 7 7 6 6 6 6 6 6 6 5 5 4 4 4 4 4 5 5 5 5 5 6 6 6 6 6 5 5 5 4 4 3 3 4 4 5 5 6 6 7 7 8 8 9 10 10 11 11 12 12 11 10 9 9 8 8 8 8 8 8 8 8 8 8 8
6 7 7 7 7 7 7 7 7 7 7 6 6 5 5 5 5 4 4 4 4 4 4 4 5 5 5 4 4 4 4 3 3 2 2 2 3 3 4 4 5 5 5 6 7 8 8 9 10 10 11 12 12 12 11 9 9 8 8 8 9 8 8 8 8 8 8 8 8
7 7 8 8 8 8 8 8 7 7 7 7 6 6 6 5 5 5 5 5 5 5 5 5 5 4 4 4 3 3 3 3 3 3 3 3 3 4 4 4 5 6 7 8 8 9 9 9 9 9 10 11 11 10 10 9 9 9 9 9 9 8 8 7 7 7 7 7 6
8 8 9 9 9 9 8 8 7 7 7 7 7 6 6 6 6 6 6 6 6 6 5 5 5 4 4 4 3 3 3 3 3 3 4 4 4 5 5 6 7 8 8 8 8 9 9 9 9 9 10 10 10 10 9 9 9 9 9 9 9 9 8 8 7 7 6 6 6
9 9 9 9 9 9 9 8 8 8 8 8 7 7 6 6 6 6 6 6 6 5 5 5 5 4 4 3 3 3 3 3 3 4 4 5 5 6 6 7 8 8 8 8 9 9 9 9 9 10 11 11 12 11 11 11 10 10 10 10 10 9 9 8 7 6 6 6 6
9 10 10 10 10 9 9 8 8 9 9 8 8 7 7 6 6 6 6 5 5 5 5 5 5 4 4 3 3 3 3 3 4 4 4 5 6 7 7 8 8 8 8 8 9 9 9 9 9 10 11 11 12 12 12 12 12 12 11 12 11 11 10 8 7 7 6 5 5
10 10 11 10 10 10 9 9 9 9 9 9 9 8 7 6 6 6 6 6 6 5 5 5 5 5 4 3 3 4 4 4 4 4 5 6 7 7 8 8 8 8 8 8 8 8 8 8 9 9 10 11 11 11 11 12 11 11 11 12 12 12 11 11 10 9 8 6 5
11 11 11 11 11 10 10 10 9 9 9 9 9 8 7 7 6 6 6 6 6 6 6 6 6 5 5 5 5 5 5 5 5 5 6 6 7 8 8 8 8 8 8 8 8 8 8 8 9 9 10 11 11 10 10 10 10 10 10 10 11 10 10 10 10 9 9 7 5
11 12 11 11 11 11 11 10 10 10 10 10 9 8 8 7 7 7 7 7 7 7 7 7 7 7 6 6 6 6 6 6 6 6 6 6 7 8 8 8 9 8 8 8 7 8 8 9 9 10 11 11 11 10 9 9 9 8 8 8 8 8 8 8 8 8 8 7 6
12 12 12 12 12 11 11 11 11 10 10 10 10 9 8 8 8 7 7 7 8 8 8 8 8 8 8 8 7 7 7 7 7 7 7 7 7 8 9 9 9 8 7 7 7 8 9 9 10 10 10 11 10 10 9 8 8 7 7 6 6 6 6 6 6 6 7 7 8
13 13 13 12 12 12 12 12 12 11 11 11 10 10 9 9 8 8 8 8 8 8 9 9 9 9 9 8 8 8 8 8 8 8 8 8 8 8 9 9 8 8 7 7 7 8 9 9 9 9 9 9 9 8 8 8 7 7 6 6 5 5 4 4 4 4 5 6 8
13 14 14 13 13 13 13 13 12 12 12 11 11 11 10 10 9 9 9 9 8 8 8 8 9 9 9 9 8 8 8 8 8 8 8 9 9 8 8 8 7 7 6 6 7 8 8 9 9 9 9 8 8 7 7 7 7 7 6 6 5 5 4 4 4 3 3 5 7
14 14 14 14 13 13 13 13 13 13 13 13 12 12 11 10 10 9 9 9 8 8 8 8 9 9 9 9 9 9 9 9 8 8 8 8 8 8 7 6 6 6 6 7 7 8 8 9 9 9 8 7 7 7 7 7 7 6 6 6 5 5 5 4 4 3 3 3 6
14 14 14 14 14 14 14 13 13 13 14 14 14 13 12 11 10 10 10 9 9 8 8 8 9 9 9 9 9 9 9 9 9 9 8 8 8 7 6 6 6 6 6 7 7 8 8 9 9 10 9 7 7 6 6 6 6 6 6 6 5 5 5 5 4 4 4 4 5
Wind_Direction
205 211 217 222 227 230 235 241 249 255 256 257 256 257 259 260 264 266 268 270 270 271 272 273 274 278 283 289 294 297 299 298 297 294 292 291 289 286 283 281 278 275 272 270 268 265 261 258 255 252 248 245 243 241 241 243 245 246 246 244 240 234 228 221 216 212 210 209 207
193 203 220 233 240 244 247 253 260 267 270 268 261 258 258 260 263 265 267 270 269 270 271 274 279 285 292 298 301 303 303 303 303 301 299 295 291 288 286 284 282 279 276 271 266 260 255 252 249 246 243 241 239 238 240 243 245 244 240 235 229 223 217 215 216 217 216 212 207
183 194 210 228 235 239 242 245 252 259 263 262 260 259 260 261 263 265 268 270 272 273 274 276 283 292 298 300 302 303 305 308 312 312 308 301 296 293 293 294 293 290 285 278 270 260 251 244 241 239 238 237 235 234 233 233 230 225 218 214 212 209 206 208 212 214 212 208 206
183 191 201 213 222 227 233 238 243 247 250 252 257 261 262 262 262 264 266 266 271 273 273 276 282 289 294 294 294 297 304 312 319 320 315 307 301 298 300 303 300 296 290 282 274 265 254 245 241 238 236 235 233 230 226 222 216 210 206 205 206 206 207 211 216 219 217 213 211
191 202 213 224 232 237 239 242 247 251 255 259 263 266 264 261 258 258 259 261 266 268 269 272 273 276 280 283 283 288 299 314 321 322 319 314 307 304 305 305 303 299 294 287 280 271 260 249 243 239 238 236 234 230 225 220 215 211 209 208 208 210 215 221 225 225 223 218 215
199 218 232 240 247 251 253 256 259 262 264 266 267 266 265 263 260 259 258 258 259 262 265 269 267 267 269 273 274 281 296 310 314 317 320 321 314 309 303 298 300 301 298 292 284 275 264 253 245 242 240 239 236 232 228 224 220 217 216 215 216 219 223 225 226 224 221 217 214
213 231 246 255 259 261 264 266 269 270 271 270 268 266 264 264 263 262 260 257 256 258 261 262 260 260 260 261 264 276 290 296 299 306 313 317 313 303 292 291 296 298 298 294 286 275 263 253 246 241 239 238 235 233 231 228 227 226 226 228 231 233 231 226 222 218 214 212 212
232 246 258 266 269 270 270 272 273 273 273 272 269 266 264 263 262 259 257 256 255 256 257 255 253 252 251 251 258 269 277 281 285 291 296 300 300 296 291 289 290 291 291 290 283 273 263 255 248 243 240 238 234 233 234 233 233 233 233 233 236 239 238 231 220 211 206 206 206
243 260 272 279 280 276 275 274 272 270 269 268 265 263 262 260 258 255 253 253 253 253 252 249 246 245 244 247 256 265 270 272 275 280 286 289 290 291 291 290 286 286 287 286 282 273 266 260 257 253 251 248 239 234 232 232 230 229 228 227 226 228 228 224 215 207 202 202 201
237 263 280 284 281 277 274 272 270 267 264 263 262 261 260 258 254 251 249 250 252 250 247 243 239 239 243 250 259 266 270 272 274 280 288 292 292 292 291 288 287 289 293 294 295 288 278 268 260 253 250 249 234 225 223 225 222 218 217 215 213 211 212 215 214 210 206 203 200
237 261 272 270 268 269 268 266 267 266 263 261 262 262 261 258 255 251 249 248 247 245 241 238 236 239 244 252 259 266 274 280 283 286 292 297 302 304 302 293 287 288 296 309 324 321 304 286 270 249 230 222 215 210 213 218 215 210 206 203 202 200 199 201 203 202 200 199 196
246 268 277 275 270 266 262 256 255 259 260 255 255 259 261 256 253 251 249 246 243 241 239 239 240 242 245 251 256 260 268 279 286 293 297 299 302 307 307 300 291 286 291 318 332 322 307 294 282 260 231 214 205 201 200 202 203 199 196 192 193 191 187 184 184 183 183 184 182
252 272 281 282 276 268 259 249 247 249 252 248 242 244 251 251 249 247 246 246 246 246 246 247 247 246 247 248 251 254 259 269 280 291 297 299 301 303 305 303 290 281 290 336 331 315 301 293 280 258 231 216 207 199 194 192 190 189 187 185 185 182 178 175 173 171 170 168 168
262 273 278 279 276 268 257 248 245 244 245 245 241 239 242 247 248 248 250 253 257 260 261 260 257 253 249 248 250 257 267 278 287 294 298 299 301 302 301 297 274 240 204 25 7 342 309 279 259 230 204 191 189 189 188 183 179 177 176 176 173 173 172 171 169 167 163 159 159
265 273 276 277 273 263 252 245 242 241 242 244 243 243 243 244 246 250 256 262 268 274 279 279 274 266 258 253 254 265 283 297 303 304 302 299 298 297 295 288 261 228 200 105 37 22 341 259 230 207 192 182 180 182 181 175 170 167 166 166 166 167 169 169 169 168 165 163 164
254 266 274 274 267 255 245 241 241 241 242 243 244 246 247 246 243 242 246 256 267 276 283 287 285 280 274 269 267 275 290 305 310 309 305 298 293 288 283 279 261 242 231 230 242 237 204 173 198 200 194 186 184 183 182 178 172 166 163 161 163 166 169 173 175 175 175 176 176
247 257 265 262 253 248 247 244 243 241 241 242 246 248 248 247 241 237 236 240 250 260 266 267 271 277 283 283 282 285 296 308 313 312 306 298 291 283 277 274 267 256 247 246 246 239 226 210 210 209 204 197 192 193 196 197 191 180 174 170 172 175 179 182 183 182 182 182 180
244 255 262 260 253 251 251 247 242 239 238 241 246 247 246 242 238 237 239 241 243 246 251 256 261 267 274 282 287 286 291 308 308 296 285 279 277 276 275 275 272 266 258 253 250 246 240 231 227 225 222 215 208 205 206 205 200 194 188 185 184 185 185 184 184 183 182 180 179
232 247 259 260 253 251 250 244 240 237 239 243 246 244 241 236 232 234 238 241 241 241 242 250 256 262 267 273 278 272 272 290 283 270 263 262 268 274 278 278 274 268 261 256 253 250 245 240 238 236 230 221 208 201 198 196 193 189 187 183 181 180 180 180 181 181 178 173 169
231 239 247 250 250 247 244 240 238 239 242 245 245 240 236 233 232 233 237 242 244 241 241 246 253 260 267 270 272 270 269 276 270 265 264 267 275 281 283 281 275 265 258 253 249 245 240 236 234 229 219 208 198 192 189 187 184 182 180 177 173 171 172 174 174 172 168 163 157
236 239 243 243 243 241 239 239 238 237 237 238 236 233 231 231 233 236 240 245 248 248 248 252 256 260 265 267 271 273 273 273 265 263 266 275 283 287 288 283 269 259 250 240 232 227 224 222 217 208 199 195 193 191 187 183 179 177 175 171 166 162 160 158 155 152 150 148 146
236 238 239 239 240 239 237 236 233 230 229 229 230 229 229 232 236 241 245 248 250 254 257 258 257 254 254 260 267 271 268 262 255 257 266 278 283 283 276 265 255 247 236 222 211 205 202 201 198 194 190 189 190 189 185 177 170 166 163 159 154 148 141 137 134 133 134 134 134
234 236 237 235 236 237 235 232 231 230 230 231 233 234 236 239 243 246 248 249 252 256 260 259 254 252 254 261 265 263 257 251 251 257 267 279 282 275 262 249 241 232 221 209 198 190 186 185 186 186 185 183 182 179 174 167 160 155 151 148 144 138 133 130 127 126 126 124 123
230 232 234 232 233 233 233 232 232 233 234 236 238 240 242 244 245 246 248 251 255 257 256 252 251 255 261 266 266 260 253 251 255 263 272 279 278 269 254 243 232 219 207 200 192 186 181 180 180 179 177 175 171 166 161 157 152 149 145 143 140 136 132 127 121 118 116 115 114
228 230 229 227 229 231 231 232 232 234 236 238 240 242 243 243 244 247 251 255 258 255 249 244 247 254 262 264 259 254 251 253 259 267 274 277 270 258 246 240 233 222 209 199 190 184 180 179 176 172 167 164 159 156 153 150 148 147 146 144 140 135 129 124 118 114 113 114 118
224 223 221 223 226 227 228 228 230 231 234 237 238 239 240 241 245 248 251 252 251 247 242 242 246 252 257 258 255 253 252 255 261 266 270 266 257 245 236 231 228 222 215 206 196 187 180 175 171 165 160 156 154 151 148 147 148 149 149 146 142 135 130 126 122 119 117 118 122
216 213 215 220 221 221 221 222 223 225 227 229 229 231 233 235 238 240 241 240 241 241 242 245 248 253 259 263 261 259 258 260 264 265 264 257 247 236 227 220 220 221 220 212 200 189 179 172 166 161 158 155 153 151 149 148 148 149 147 143 141 137 134 130 126 122 119 119 120
211 210 212 214 215 215 215 215 216 217 219 218 219 222 227 228 226 225 226 229 234 237 239 241 248 256 262 262 259 259 261 265 268 267 260 246 227 216 210 205 206 211 211 201 187 177 172 169 166 164 162 160 158 155 151 147 144 142 140 138 139 139 137 133 130 127 125 122 122
206 206 208 209 211 212 212 212 214 216 217 217 218 220 224 225 225 224 222 222 224 226 226 227 238 247 248 242 239 243 248 249 250 242 221 192 182 183 187 187 186 183 175 167 162 161 162 164 166 166 167 165 161 155 148 142 139 139 139 141 142 140 138 136 134 132 130 129 128
203 202 204 207 209 211 212 214 216 217 218 218 218 220 223 225 228 229 228 226 226 226 227 227 231 235 233 225 222 221 218 209 199 189 179 172 167 165 165 159 152 146 144 146 150 152 154 156 159 163 166 165 158 149 142 140 141 141 141 143 143 141 137 135 133 132 133 132 132
203 203 204 207 210 211 212 213 215 216 216 216 216 219 222 227 230 232 231 229 228 229 231 231 230 228 226 224 222 213 202 189 180 176 172 165 159 153 147 139 135 134 137 141 145 147 147 148 151 154 157 158 152 146 141 141 141 141 141 142 142 141 138 133 130 131 134 136 138
202 202 204 207 209 211 211 213 213 214 214 214 216 219 223 228 231 231 229 225 224 225 226 224 222 219 217 218 217 208 195 182 176 172 166 158 151 144 138 135 133 134 137 140 143 144 145 147 150 155 159 160 156 151 147 145 143 143 143 143 141 138 133 128 128 131 137 140 142
201 201 203 207 209 210 210 210 210 211 211 212 215 219 223 225 226 224 220 218 218 218 217 213 211 209 207 207 204 195 183 175 169 166 161 154 146 140 136 135 136 136 138 140 142 145 147 152 158 163 165 166 164 160 156 153 151 149 148 147 144 141 138 136 135 136 137 137 140
202 202 204 206 207 208 207 207 206 206 207 210 213 216 218 217 215 212 211 210 210 210 207 203 200 198 195 188 183 176 170 166 164 161 156 151 146 141 139 139 140 140 140 141 143 146 150 157 161 164 165 165 163 160 157 156 154 154 153 154 154 155 155 153 151 148 143 133 128
201 202 204 206 206 206 205 204 203 203 206 209 210 210 209 208 207 206 204 201 200 199 195 192 189 184 179 173 165 157 152 151 152 155 156 153 148 143 142 140 140 141 141 144 145 148 152 155 156 157 157 156 153 150 150 151 152 154 157 159 162 164 167 168 167 163 157 145 128
201 201 203 205 205 204 202 201 200 201 203 205 205 205 204 202 201 201 198 193 190 187 185 183 181 178 175 172 165 155 144 135 136 144 153 155 152 147 144 140 139 140 143 147 149 151 152 151 151 152 152 150 146 143 144 148 149 152 156 160 164 168 173 177 178 178 174 165 148
201 201 202 204 203 202 201 200 198 199 201 202 203 203 201 198 197 196 194 191 187 183 183 183 183 184 186 187 183 174 162 149 141 142 147 151 151 148 144 142 140 142 146 150 154 154 153 150 151 153 153 150 145 142 142 143 144 145 147 151 159 168 175 179 180 182 182 177 166
200 200 201 202 202 201 200 199 198 199 200 202 201 200 198 196 194 194 194 194 189 186 184 186 188 192 196 197 193 187 180 169 159 151 147 145 144 145 145 145 146 149 152 155 158 158 156 154 155 155 154 149 142 139 138 138 137 137 139 142 151 159 162 161 162 169 177 181 175
199 199 199 201 201 200 199 198 199 199 199 198 199 199 198 196 194 194 195 195 194 191 188 188 192 197 201 201 197 192 189 184 177 168 158 148 143 143 145 148 151 154 158 160 161 161 161 159 158 156 150 143 138 136 137 136 136 136 137 139 141 143 141 137 138 152 172 180 174
198 198 199 201 201 200 199 198 198 198 198 198 200 200 199 196 195 194 195 194 195 194 191 190 194 199 202 201 197 195 194 193 190 185 176 163 152 146 144 146 151 156 161 165 165 165 163 161 158 153 146 138 137 137 138 139 138 137 136 135 134 133 134 135 136 144 160 170 167
197 198 199 200 201 200 199 197 196 198 200 202 203 203 201 198 196 195 194 192 193 192 192 193 197 202 203 202 200 199 199 199 199 199 194 184 169 155 145 145 151 158 165 170 169 166 164 162 158 153 147 142 141 140 139 140 138 137 138 137 136 137 141 145 147 150 154 157 162
Height
812 812 812 813 813 814 814 814 815 815 815 815 816 816 816 816 816 816 816 816 815 815 815 814 813 813 813 812 812 812 812 812 812 812 811 811 810 810 810 809 809 809 809 809 809 809 809 809 810 810 810 810 810 810 810 810 811 811 812 812 812 812 813 814 815 815 815 816 816
811 812 812 812 813 813 814 814 814 814 814 815 815 815 815 815 815 815 815 815 814 814 813 813 812 812 812 812 812 812 812 811 811 811 810 810 809 809 809 808 808 808 808 808 808 808 808 808 808 808 808 808 808 809 809 809 810 810 811 811 811 812 812 813 814 815 815 816 816
811 812 812 812 813 813 813 814 814 814 814 814 814 814 814 814 814 814 814 814 813 813 812 812 812 812 812 812 811 811 811 811 811 810 810 809 809 808 808 808 808 808 808 807 807 807 807 807 807 807 807 807 807 808 808 808 809 809 809 810 810 810 811 812 813 814 815 815 815
811 811 812 812 812 812 813 813 813 813 813 813 813 813 813 813 813 813 813 812 812 812 812 811 811 812 812 811 811 811 811 810 810 810 809 809 808 808 808 807 807 807 807 807 807 807 807 807 807 806 806 806 807 807 807 807 807 807 808 808 809 809 810 811 811 812 813 814 814
810 811 811 811 811 812 812 812 812 812 812 812 812 812 812 812 812 812 812 812 812 811 811 811 811 811 811 811 811 811 810 810 810 809 809 808 808 808 807 807 807 807 807 807 806 806 806 806 806 806 806 806 806 806 806 807 807 807 807 808 808 809 809 810 810 811 812 812 813
810 810 810 810 810 810 811 811 811 811 811 811 811 811 811 810 810 810 810 810 810 810 810 810 810 810 810 810 810 810 810 809 809 809 809 808 808 807 807 807 807 807 807 806 806 806 806 805 805 805 805 805 805 805 806 806 807 807 807 808 808 808 809 809 809 810 811 811 812
809 809 809 809 809 809 809 809 809 809 809 809 810 810 809 809 809 809 809 809 809 809 809 809 809 810 810 810 810 809 809 809 809 809 809 808 808 808 808 807 807 807 806 806 806 806 805 805 805 805 805 805 805 805 806 806 806 807 807 807 808 808 808 808 809 809 810 810 811
808 808 808 808 808 808 808 808 808 808 808 808 809 808 808 808 808 808 808 808 808 808 808 809 809 809 809 809 809 809 809 809 809 809 808 808 808 808 807 807 807 807 806 806 806 805 805 805 805 805 805 805 805 805 805 806 806 806 807 807 807 807 808 808 809 809 809 810 811
807 807 807 807 807 807 807 807 808 808 808 808 808 807 807 807 807 807 807 807 807 807 808 808 808 808 808 808 809 809 809 808 808 808 808 808 808 808 807 807 807 807 806 806 806 805 805 805 805 804 804 804 805 805 805 805 805 806 806 806 807 807 807 808 808 809 809 810 810
806 806 806 807 807 807 807 807 807 807 807 807 807 806 806 807 807 807 807 807 807 807 807 807 807 808 808 808 808 808 808 808 808 808 808 808 807 807 807 807 807 807 806 806 806 806 805 805 805 804 804 804 805 805 805 805 805 805 806 806 806 807 807 807 808 808 809 809 810
805 806 806 806 806 806 806 806 806 806 806 806 806 806 806 806 806 806 806 806 807 807 807 807 807 807 807 807 807 807 808 808 807 807 807 807 807 807 807 807 807 807 807 806 806 806 806 805 805 805 804 804 805 805 805 805 805 805 806 806 806 806 807 807 808 808 809 809 810
805 805 805 805 805 805 805 806 806 806 805 805 805 805 805 805 805 806 806 806 806 806 806 807 807 807 807 807 807 807 807 807 807 807 807 807 807 807 807 806 806 806 807 807 807 806 806 805 805 805 805 805 805 805 805 805 805 806 806 806 806 806 807 807 808 809 809 809 809
804 804 804 804 804 804 804 805 805 805 805 805 805 805 805 805 805 805 806 806 806 806 806 806 806 806 807 807 807 807 807 807 807 807 807 807 807 807 806 806 806 806 807 807 807 807 806 806 805 805 805 805 805 805 806 806 806 806 806 806 806 807 807 808 808 809 809 809 809
803 803 803 803 803 803 803 804 804 804 804 804 804 804 804 805 805 805 805 805 805 806 806 806 806 806 806 806 806 806 807 807 807 807 807 807 807 806 806 806 806 807 807 807 807 807 806 806 806 806 806 806 806 806 806 806 806 806 806 806 807 807 807 808 809 809 809 809 809
802 802 802 802 802 802 803 803 803 803 803 803 803 803 804 804 804 805 805 805 805 805 805 806 806 806 806 806 806 806 806 807 807 807 806 806 806 806 806 806 806 806 807 807 807 807 806 806 806 806 806 806 806 806 806 806 806 806 806 807 807 807 808 808 809 809 809 809 810
802 801 801 802 802 802 802 802 802 802 802 802 802 803 803 804 804 805 805 805 805 805 805 806 806 806 806 806 806 806 806 807 807 806 806 806 806 806 806 806 806 806 806 807 807 806 806 806 806 806 806 806 806 806 806 806 806 806 806 807 807 807 808 808 809 809 809 809 810
800 801 801 801 801 801 801 802 802 802 802 802 802 802 803 803 803 804 804 805 805 805 806 806 806 806 806 806 806 806 806 806 806 806 806 805 805 805 805 805 805 805 806 806 806 806 806 806 806 806 805 806 806 806 806 806 806 806 807 807 807 807 808 808 809 809 809 809 810
799 799 800 800 800 800 801 801 801 801 801 801 801 802 802 802 803 803 804 804 804 805 805 805 805 806 806 806 806 806 806 806 806 806 805 805 805 804 804 804 804 805 805 805 805 805 805 805 805 805 805 805 806 806 806 806 806 806 807 807 807 807 808 808 808 809 809 809 810
799 799 799 799 799 800 800 800 800 800 800 800 801 801 802 802 802 802 803 803 803 804 804 805 805 805 805 805 805 805 805 805 805 805 804 804 804 804 804 804 804 804 804 804 804 804 804 805 805 805 805 805 805 805 806 806 806 806 807 807 807 807 808 808 808 809 809 809 810
798 798 798 798 799 799 799 799 800 800 800 800 800 800 801 801 801 802 802 802 803 803 803 804 804 804 804 804 804 804 804 805 804 804 804 803 803 803 803 803 803 803 803 803 804 804 804 804 804 804 805 805 805 805 805 806 806 806 807 807 807 808 808 808 809 809 809 809 810
797 797 798 798 798 798 799 799 799 799 799 799 800 800 800 801 801 801 802 802 802 802 802 803 803 804 804 804 804 804 804 804 804 803 803 803 803 803 803 803 803 803 803 803 803 803 804 804 804 804 804 804 805 805 805 806 806 806 807 807 807 808 808 809 809 809 810 810 810
797 797 797 797 797 798 798 798 799 799 799 799 799 800 800 800 801 801 801 801 801 802 802 802 803 803 803 803 803 803 803 803 803 803 802 802 802 802 802 803 802 802 802 803 803 803 803 803 804 804 804 804 805 805 805 806 806 807 807 807 808 808 809 809 809 810 810 810 811
796 796 796 797 797 797 797 798 798 798 799 799 799 799 800 800 800 800 800 800 801 801 802 802 802 802 802 802 802 803 803 802 802 802 802 802 802 802 802 802 802 802 802 802 803 803 803 803 803 803 804 804 805 805 806 806 806 807 807 808 808 809 809 809 810 810 810 811 811
795 795 795 796 796 797 797 797 797 798 798 798 798 799 799 799 799 799 799 799 800 800 801 801 801 801 801 802 802 802 802 802 801 801 801 801 801 801 802 802 802 802 802 802 802 802 802 803 803 803 804 804 805 805 806 806 807 807 807 808 809 809 810 810 810 811 811 811 812
794 794 795 795 796 796 796 797 797 797 797 798 798 798 798 798 798 798 798 799 799 799 800 800 800 800 801 801 801 801 801 801 801 801 801 801 801 801 801 801 801 802 802 802 802 802 802 803 803 803 804 804 805 805 806 807 807 807 808 808 809 809 810 811 811 812 812 812 812
793 793 794 794 795 795 796 796 796 797 797 797 797 797 797 797 797 798 798 798 798 799 799 799 799 800 800 800 801 801 801 800 800 800 800 800 800 800 800 801 801 801 801 801 801 802 802 803 803 803 804 804 805 806 806 807 807 807 808 809 809 810 810 811 811 812 812 812 812
792 792 793 794 794 795 795 795 796 796 797 797 797 797 797 797 797 797 797 798 798 798 798 799 799 799 800 800 800 800 800 800 800 800 800 800 800 800 800 800 800 800 800 801 801 802 802 802 803 803 804 804 805 805 806 807 807 808 808 809 810 810 811 811 812 812 812 812 812
791 792 792 793 793 794 794 795 795 796 796 796 796 797 797 797 797 797 797 797 798 798 798 798 799 799 799 799 800 800 799 799 799 799 799 799 799 799 800 800 800 800 800 800 801 802 802 802 803 803 803 804 804 805 806 807 807 808 809 809 810 810 811 811 812 812 812 812 813
790 791 792 792 793 793 794 794 795 795 795 796 796 796 797 797 797 797 797 797 797 798 798 798 798 799 799 799 799 799 799 799 799 799 799 799 799 799 799 799 799 799 800 800 801 801 802 802 803 803 803 804 804 805 806 807 807 808 809 809 810 810 811 811 812 812 812 812 813
790 790 791 792 792 793 793 794 794 795 795 795 796 796 796 797 797 797 797 797 797 798 798 798 798 799 799 799 799 799 799 799 799 799 799 799 799 799 799 799 799 799 800 800 801 801 802 802 803 803 803 804 804 805 806 807 807 808 809 809 810 810 811 811 812 812 812 813 813
789 789 790 791 792 792 792 793 794 794 795 795 795 796 796 796 796 797 797 797 797 797 797 798 798 798 798 799 799 799 799 799 799 799 799 799 799 799 799 799 799 800 800 801 801 802 802 802 803 803 803 804 805 805 806 807 807 808 808 809 810 810 811 811 812 812 813 813 813
788 789 789 790 791 792 792 792 793 793 794 795 795 795 795 796 796 796 797 797 797 797 797 798 798 798 798 798 799 799 799 799 799 799 799 799 800 800 800 800 800 800 801 801 802 802 802 802 803 803 803 804 804 805 806 806 807 808 808 809 809 810 811 811 812 812 813 813 814
787 788 789 790 790 791 791 792 792 793 793 794 794 795 795 795 796 796 796 796 797 797 797 797 798 798 798 798 798 799 799 799 799 799 800 800 800 800 800 800 800 801 801 801 802 802 802 802 802 802 803 804 804 805 805 806 807 807 808 808 809 810 811 811 812 812 813 813 814
787 787 788 789 789 790 791 791 792 792 793 793 794 794 795 795 795 796 796 796 796 797 797 797 797 798 798 798 798 799 799 799 799 799 800 800 800 800 800 801 801 801 801 802 802 802 802 802 802 803 803 804 805 805 806 806 807 807 808 808 809 809 810 811 812 812 813 813 814
786 787 787 788 789 789 790 790 791 792 792 793 793 794 794 795 795 795 796 796 796 797 797 797 797 797 798 798 798 798 799 799 799 800 800 800 801 801 801 801 801 801 802 802 802 802 802 802 803 803 804 805 805 806 806 807 807 807 808 809 809 810 810 811 812 812 812 813 814
785 786 787 787 788 788 789 790 790 791 792 792 793 793 794 794 795 795 795 796 796 796 797 797 797 797 797 798 798 798 798 799 799 800 800 801 801 801 801 801 802 802 802 802 802 802 802 803 803 804 804 805 805 806 807 807 807 808 808 809 810 810 811 811 812 812 812 813 813
784 785 786 786 787 787 788 789 790 790 791 792 792 793 793 794 794 795 795 795 796 796 796 797 797 797 797 797 798 798 798 799 799 800 800 801 801 801 801 802 802 802 802 802 802 802 803 803 804 804 805 805 806 806 807 807 808 808 809 809 810 810 811 811 812 812 812 813 813
783 784 785 786 786 787 787 788 789 789 790 791 792 792 793 793 794 794 795 795 795 796 796 796 796 797 797 797 798 798 799 799 800 800 800 801 801 801 801 802 802 802 802 802 802 803 803 804 804 805 805 805 806 807 807 807 808 809 809 810 810 810 811 811 812 812 812 812 813
782 782 784 784 785 786 787 787 788 789 789 790 791 792 792 793 793 794 794 795 795 795 796 796 796 796 797 797 798 798 799 799 800 800 801 801 801 801 802 802 802 802 802 803 803 803 803 804 804 805 805 806 806 807 807 808 808 809 809 810 810 810 811 811 812 812 812 812 813
781 782 783 784 784 785 786 787 787 788 789 790 790 791 792 792 792 793 794 794 795 795 795 796 796 796 797 797 797 798 799 799 800 800 801 801 801 802 802 802 802 802 803 803 803 803 804 804 804 805 806 806 807 807 807 808 809 809 809 810 810 811 811 811 812 812 812 813 813
780 781 782 783 784 784 785 786 787 787 788 789 790 790 791 792 792 792 793 794 794 795 795 795 795 796 796 797 797 798 798 799 800 800 801 801 802 802 802 803 803 803 803 803 803 804 804 804 805 805 806 806 807 807 808 808 809 809 810 810 810 811 811 812 812 812 813 813 813